Izmir, Turkey

6:58 PM EET on February 12, 2016 (GMT +0200)
Adnan Menderes

Weather History for LTBJ - March, 2013

Change the Weather History Date:

Sunday, March 24, 2013

  Actual Average Record
Temperature  
Mean Temperature 48 °F -  
Max Temperature 65 °F 64 °F 73 °F (2001)
Min Temperature 32 °F 43 °F 28 °F (1997)
Degree Days  
Heating Degree Days 16    
Moisture  
Dew Point 34 °F    
Average Humidity 62    
Maximum Humidity 93    
Minimum Humidity 21    
Precipitation  
Precipitation 0.00 in - - ()
Sea Level Pressure  
Sea Level Pressure 30.04 in    
Wind  
Wind Speed 2 mph ()    
Max Wind Speed 8 mph    
Max Gust Speed -    
Visibility 7.0 miles    
Events      
Averages and records for this station are not official NWS values.
T = Trace of Precipitation, MM = Missing Value Source: Averaged Metar Reports

Daily Weather History Graph

Daily Weather History Graph

Search for Another Location

Airport or City:

Trip Planner

Search our weather history database for the weather conditions in past years. The results will help you decide how hot, cold, wet, or windy it might be!

Date:

Astronomy

Mar. 24, 2013 Rise Set
Actual Time 6:08 AM EET 6:27 PM EET
Civil Twilight 5:42 AM EET 6:53 PM EET
Nautical Twilight 5:11 AM EET 7:24 PM EET
Astronomical Twilight 4:39 AM EET 7:56 PM EET
Moon 3:37 PM EET (3/24) 4:05 AM EET (3/24)
Length of Visible Light 13h 11m
Length of Day
12h 18m
Waxing Gibbous, 90% of the Moon is Illuminated
Mar 24
Waxing Gibbous
Mar 27
Full
Apr 3
Last Quarter
Apr 10
New
Apr 18
First Quarter

Hourly Weather History & Observations

Time (EET) Temp. Windchill Dew Point Humidity Pressure Visibility Wind Dir Wind Speed Gust Speed Precip Events Conditions
12:20 AM 39.2 °F - 35.6 °F 87% 30.01 in - Variable 1.2 mph - N/A   Clear
12:50 AM 37.4 °F - 35.6 °F 93% 30.01 in - Calm Calm - N/A   Clear
1:20 AM 37.4 °F - 35.6 °F 93% 30.01 in - Calm Calm - N/A   Clear
1:50 AM 37.4 °F - 33.8 °F 87% 30.01 in - Calm Calm - N/A   Clear
2:00 AM 37 °F - 34 °F 84% 30.04 in 9 mi Calm Calm - -  
2:20 AM 35.6 °F - 32.0 °F 87% 30.01 in - Calm Calm - N/A   Clear
2:50 AM 35.6 °F - 33.8 °F 93% 30.01 in - Calm Calm - N/A   Clear
3:20 AM 35.6 °F - 33.8 °F 93% 30.01 in - Calm Calm - N/A   Clear
3:50 AM 35.6 °F - 33.8 °F 93% 30.04 in - Calm Calm - N/A   Clear
4:20 AM 33.8 °F - 32.0 °F 93% 30.01 in - Calm Calm - N/A   Clear
4:50 AM 33.8 °F - 32.0 °F 93% 30.01 in - Calm Calm - N/A   Clear
5:20 AM 33.8 °F - 32.0 °F 93% 30.01 in - Calm Calm - N/A   Clear
5:50 AM 33.8 °F - 32.0 °F 93% 30.04 in - Calm Calm - N/A   Clear
6:20 AM 32.0 °F - 30.2 °F 93% 30.04 in - Variable 2.3 mph - N/A   Clear
6:50 AM 35.6 °F - 33.8 °F 93% 30.04 in - Calm Calm - N/A   Clear
7:20 AM 41.0 °F - 37.4 °F 87% 30.06 in - Variable 1.2 mph - N/A   Clear
7:50 AM 44.6 °F - 37.4 °F 76% 30.06 in - Variable 2.3 mph - N/A   Clear
8:00 AM 44 °F - 37 °F 69% 30.10 in 9 mi 2.3 mph - -  
8:20 AM 44.6 °F 43.1 °F 35.6 °F 71% 30.06 in - South 3.5 mph - N/A   Clear
8:50 AM 48.2 °F - 37.4 °F 66% 30.06 in - Variable 3.5 mph - N/A   Clear
9:20 AM 50.0 °F - 37.4 °F 62% 30.09 in - South 4.6 mph - N/A   Clear
9:50 AM 51.8 °F - 39.2 °F 62% 30.09 in - South 4.6 mph - N/A   Clear
10:20 AM 53.6 °F - 39.2 °F 58% 30.09 in - SSE 5.8 mph - N/A   Clear
10:50 AM 57.2 °F - 37.4 °F 48% 30.06 in - SSE 5.8 mph - N/A   Clear
11:20 AM 57.2 °F - 35.6 °F 44% 30.06 in - South 6.9 mph - N/A   Clear
11:50 AM 59.0 °F - 28.4 °F 31% 30.06 in - South 5.8 mph - N/A   Clear
12:20 PM 59.0 °F - 32.0 °F 36% 30.06 in - SE 8.1 mph - N/A   Clear
12:50 PM 60.8 °F - 39.2 °F 45% 30.04 in 6.2 mi SE 5.8 mph - N/A   Mostly Cloudy
1:20 PM 60.8 °F - 30.2 °F 31% 30.04 in 6.2 mi Variable 5.8 mph - N/A   Mostly Cloudy
1:50 PM 62.6 °F - 33.8 °F 34% 30.04 in 6.2 mi WSW 5.8 mph - N/A   Mostly Cloudy
2:00 PM 63 °F - 33 °F 21% 30.05 in 9 mi WSW 5.8 mph - -   Scattered Clouds
2:20 PM 62.6 °F - 33.8 °F 34% 30.04 in 6.2 mi SSW 5.8 mph - N/A   Mostly Cloudy
2:50 PM 64.4 °F - 33.8 °F 32% 30.04 in 6.2 mi Variable 4.6 mph - N/A   Mostly Cloudy
3:20 PM 64.4 °F - 33.8 °F 32% 30.01 in 6.2 mi South 6.9 mph - N/A   Mostly Cloudy
3:50 PM 64.4 °F - 32.0 °F 30% 30.01 in 6.2 mi SE 6.9 mph - N/A   Mostly Cloudy
4:20 PM 64.4 °F - 28.4 °F 26% 30.01 in 6.2 mi SSE 8.1 mph - N/A   Mostly Cloudy
4:50 PM 64.4 °F - 28.4 °F 26% 29.98 in 6.2 mi SSW 6.9 mph - N/A   Mostly Cloudy
5:20 PM 62.6 °F - 30.2 °F 30% 29.98 in 6.2 mi SSW 5.8 mph - N/A   Mostly Cloudy
5:50 PM 60.8 °F - 33.8 °F 36% 29.98 in - South 5.8 mph - N/A   Clear
6:20 PM 60.8 °F - 32.0 °F 34% 30.01 in - SSW 4.6 mph - N/A   Clear
6:50 PM 57.2 °F - 33.8 °F 41% 30.01 in - Variable 1.2 mph - N/A   Clear
7:20 PM 53.6 °F - 35.6 °F 51% 30.04 in - Variable 1.2 mph - N/A   Clear
7:50 PM 50.0 °F - 35.6 °F 58% 30.04 in - SSW 5.8 mph - N/A   Clear
8:00 PM 50 °F - 36 °F 47% 30.04 in 9 mi SSW 5.8 mph - -   Clear
8:20 PM 48.2 °F - 35.6 °F 62% 30.04 in - Variable 2.3 mph - N/A   Clear
8:50 PM 48.2 °F - 37.4 °F 66% 30.04 in - Variable 2.3 mph - N/A   Clear
9:20 PM 48.2 °F - 35.6 °F 62% 30.06 in - Variable 3.5 mph - N/A   Clear
9:50 PM 44.6 °F - 35.6 °F 71% 30.04 in - Variable 2.3 mph - N/A   Clear
10:20 PM 42.8 °F 41.1 °F 35.6 °F 76% 30.06 in - Variable 3.5 mph - N/A   Clear
10:50 PM 42.8 °F 40.1 °F 33.8 °F 70% 30.04 in - SSE 4.6 mph - N/A   Clear
11:20 PM 44.6 °F 42.2 °F 32.0 °F 61% 30.04 in - South 4.6 mph - N/A   Clear
11:50 PM 42.8 °F 41.1 °F 33.8 °F 70% 30.04 in - Variable 3.5 mph - N/A   Clear